Regional Weather Roundup
Issued by NWS

Home | Current Version | Previous Version | Graphics & Text | Print | Product List | Glossary Off
Versions: 1 2 3 4 5 6 7 8 9 10 11 12 13 14 15 16 17 18 19 20 21 22 23 24 25 26 27 28 29 30 31 32 33 34 35 36 37 38 39 40 41 42 43 44 45 46 47 48 49 50

428
ASUS43 KLSX 281157
RWRMO

WEATHER SUMMARY FOR MISSOURI
NATIONAL WEATHER SERVICE SPRINGFIELD MO
700 AM CDT WED SEP 28 2016

NOTE: "FAIR" INDICATES FEW OR NO CLOUDS BELOW 12,000 FEET WITH NO
       SIGNIFICANT WEATHER AND/OR OBSTRUCTIONS TO VISIBILITY.
       CURRENT SKY AND/OR WEATHER CONDITIONS ARE NOT AVAILABLE FOR
       CHILLICOTHE AND FARMINGTON.

MOZ001>031-035>038-043-044-053-054-281300-
...NORTHERN AND WESTERN MISSOURI...

CITY           SKY/WX    TMP DP  RH WIND       PRES   REMARKS
KANSAS CTY INT CLEAR     53  46  77 N8        29.96R
6HR MIN TEMP:  53; 6HR MAX TEMP:  61;

LEE`S SUMMIT   CLEAR     58  49  72 N14       29.94R
6HR MIN TEMP:  58; 6HR MAX TEMP:  63;

ST JOSEPH      CLEAR     51  46  83 N9        29.98R
6HR MIN TEMP:  51; 6HR MAX TEMP:  54;

CHILLICOTHE      N/A     53  46  77 N5        29.95R
6HR MIN TEMP:  53; 6HR MAX TEMP:  59;


$$
MOZ066>068-077>081-088>096-101>105-281300-
...SOUTHWEST MISSOURI...

CITY           SKY/WX    TMP DP  RH WIND       PRES   REMARKS
SPRINGFIELD    CLEAR     63  47  55 W10       29.90R
6HR MIN TEMP:  60; 6HR MAX TEMP:  64;

JOPLIN         CLEAR     61  50  67 SW8       29.92R
6HR MIN TEMP:  61; 6HR MAX TEMP:  66;

BRANSON        CLEAR     63  46  55 SW9       29.93S

$$
MOZ032>034-039>042-045>050-055>058-069>072-281300-
...CENTRAL MISSOURI...

CITY           SKY/WX    TMP DP  RH WIND       PRES   REMARKS
COLUMBIA       NOT AVBL
JEFFERSON CITY MOCLDY    58  55  90 NW5       29.86R
6HR MIN TEMP:  57; 6HR MAX TEMP:  62;

ROLLA          CLEAR     56  50  80 W6        29.85R
6HR MIN TEMP:  55; 6HR MAX TEMP:  59;

SEDALIA        CLEAR     58  52  80 N9        29.90R
6HR MIN TEMP:  58; 6HR MAX TEMP:  64;


$$
MOZ051-052-059>065-281300-
...EAST CENTRAL MISSOURI...

CITY           SKY/WX    TMP DP  RH WIND       PRES   REMARKS
ST LOUIS INTL  CLOUDY    63  54  72 NW12      29.81R
6HR MIN TEMP:  63; 6HR MAX TEMP:  65;


$$
MOZ072>076-082>087-097>100-106>115-281300-
...SOUTH CENTRAL AND SOUTHEAST MISSOURI...

CITY           SKY/WX    TMP DP  RH WIND       PRES   REMARKS
CAPE GIRARDEAU CLEAR     57  50  77 SW5       29.83S
6HR MIN TEMP:  55; 6HR MAX TEMP:  59;

POPLAR BLUFF   CLEAR     55  52  89 SW7       29.86F
6HR MIN TEMP:  55; 6HR MAX TEMP:  60;

WEST PLAINS    CLEAR     55  48  77 W7        29.92S
6HR MIN TEMP:  54; 6HR MAX TEMP:  58;


$$



USA.gov is the U.S. government's official web portal to all federal, state and local government web resources and services.